{"data":{"norad_id":58862,"intl_designator":"2024-019K","name":"STARLINK-31200","alt_names":[],"object_type":"PAYLOAD","status":"ACTIVE","operator":null,"country":"US","launch_date":"2024-01-29","launch_site_code":"AFETR","launch_vehicle":null,"mission":null,"orbit_class":"UNKNOWN","rcs_meters":null,"size_class":null,"mass_kg":null,"dimensions":null,"purposes":["comms"],"wikipedia_slug":null,"has_3d_model":false,"image_url":null,"decayed_at":null,"tle_current":{"epoch":"2026-05-25T03:04:29.803008Z","epoch_age_seconds":67130,"freshness":"FRESH","line1":"1 58862U 24019K   26145.12812272 -.00003639  00000+0 -12272-3 0  9997","line2":"2 58862  43.0015 177.1548 0001170 283.0245  77.0476 15.27596663130779","mean_motion":15.27596663,"eccentricity":0.000117,"inclination_deg":43.0015,"raan_deg":177.1548,"arg_perigee_deg":283.0245,"mean_anomaly_deg":77.0476,"bstar":-0.00012272,"rev_number":13077,"period_min":94.265720453462,"perigee_km":482.19644854114,"apogee_km":483.80195441229,"semimajor_km":6861.1362014767,"source":"CELESTRAK","updated_at":"2026-05-25T13:38:18.759149Z"}}}